Back to catalog

HXMT

AliveScienceVLEO
NORAD 42758·PAYLOAD·🇨🇳 China

Launched Jun 15, 2017 from Jiuquan Satellite Launch Center

Loading…

Next Passes (next 24 hours)

TLE

FreshSource: Space-Track

Epoch: Sep 14, 2026, 15:21 UTC

1 42758U 17034A   26257.63974677  .00003662  00000-0  18044-3 0  9999
2 42758  43.0151  44.6895 0031616 350.4307   9.5937 15.19128918511260

Track HXMT in real time with AllMySat

Download on the App Store